Location: Iowa City
(41.6610°N, 91.5300°W)
Time: 23:23:36
(UTC-05:00)

ISS - Visible Passes

Search period start: 29 May 2015 00:00
Search period end: 08 June 2015 00:00
Orbit: 399 x 404 km, 51.6° (Epoch: 29 May)

Date Brightness Start Highest point End Pass type
(mag) Time Alt. Az. Time Alt. Az. Time Alt. Az.
29 May -0.7 01:15:16 19° NNW 01:15:42 19° NNW 01:18:10 10° NNE visible
29 May -0.1 02:51:08 10° NNW 02:53:02 14° N 02:54:58 10° NE visible
29 May -1.2 04:27:18 10° NW 04:30:14 29° NNE 04:33:09 10° E visible
30 May -1.1 00:22:31 25° NNW 00:22:31 25° NNW 00:25:03 10° NE visible
30 May -0.1 01:57:36 10° NW 01:59:29 14° N 02:01:21 10° NNE visible
30 May -0.6 03:34:12 10° NW 03:36:47 21° NNE 03:39:23 10° ENE visible
30 May -2.4 21:49:49 10° SSW 21:52:32 25° SE 21:55:18 10° ENE visible
30 May -1.9 23:25:46 10° W 23:28:50 39° NNW 23:31:56 10° NE visible
31 May -0.1 01:03:52 10° NW 01:05:55 15° N 01:07:58 10° NNE visible
31 May -0.2 02:41:03 10° NNW 02:43:17 17° NNE 02:45:31 10° NE visible
31 May -2.5 04:17:02 10° NW 04:20:15 53° NNE 04:23:27 10° ESE visible
31 May -3.1 22:32:17 10° WSW 22:35:31 69° NNW 22:38:45 10° NE visible
01 Jun -0.4 00:10:01 10° WNW 00:12:23 18° NNW 00:14:45 10° NNE visible
01 Jun 0.0 01:47:47 10° NNW 01:49:43 15° N 01:51:41 10° NE visible
01 Jun -1.4 03:23:53 10° NW 03:26:52 32° NNE 03:29:52 10° E visible
01 Jun -2.7 05:00:17 10° WNW 05:03:18 34° SW 05:06:17 10° SSE visible
01 Jun -3.4 21:39:03 10° SW 21:42:14 60° SE 21:45:27 10° ENE visible
01 Jun -0.8 23:16:09 10° WNW 23:18:52 24° NNW 23:21:36 10° NE visible
02 Jun 0.0 00:54:17 10° NW 00:56:08 14° N 00:58:00 10° NE visible
02 Jun -0.7 02:30:45 10° NW 02:33:25 23° NNE 02:36:05 10° ENE visible
02 Jun -3.5 04:06:51 10° WNW 04:10:06 69° SW 04:13:20 10° SE visible
02 Jun -1.6 22:22:24 10° W 22:25:25 35° NNW 22:28:27 10° NE visible
03 Jun -0.1 00:00:33 10° NW 00:02:32 15° N 00:04:31 10° NNE visible
03 Jun -0.3 01:37:35 10° NNW 01:39:53 18° NNE 01:42:12 10° ENE visible
03 Jun -2.9 03:13:33 10° NW 03:16:48 62° NNE 03:20:02 10° ESE visible
03 Jun -1.6 04:50:53 10° W 04:52:55 15° SW 04:54:52 10° S visible
03 Jun -2.7 21:28:50 10° WSW 21:32:02 60° NNW 21:35:15 10° NE visible
03 Jun -0.3 23:06:41 10° WNW 23:08:57 17° NNW 23:11:14 10° NNE visible
04 Jun -0.1 00:44:19 10° NNW 00:46:18 15° N 00:48:18 10° NE visible
04 Jun -1.8 02:20:22 10° NW 02:23:25 36° NNE 02:25:57 13° E visible
04 Jun -1.3 03:56:53 10° WNW 04:02:28 11° SSE 04:02:38 10° SSE visible
04 Jun -0.6 22:12:46 10° WNW 22:15:24 22° NNW 22:18:03 10° NE visible
04 Jun -0.1 23:50:50 10° NNW 23:52:42 14° N 23:54:33 10° NE visible
05 Jun -1.0 01:27:12 10° NW 01:29:56 24° NNE 01:30:30 23° NE visible
05 Jun -1.3 21:18:57 10° W 21:21:54 31° NNW 21:24:52 10° NE visible
05 Jun -0.2 22:57:07 10° NW 22:59:04 15° N 23:00:59 10° NNE visible
06 Jun -0.5 00:34:01 10° NNW 00:36:23 19° NNE 00:37:53 14° NE visible
06 Jun -0.6 02:09:59 10° NW 02:10:25 13° NW 02:10:25 13° NW visible
06 Jun -0.3 22:03:14 10° NW 22:05:26 17° NNW 22:07:38 10° NNE visible
06 Jun -0.3 23:40:44 10° NNW 23:42:47 15° N 23:44:51 10° NE visible
07 Jun -1.0 01:16:45 10° NW 01:18:16 23° NNW 01:18:16 23° NNW visible
07 Jun -0.6 21:09:17 10° WNW 21:11:51 21° NNW 21:14:23 10° NE visible
07 Jun -0.3 22:47:17 10° NNW 22:49:08 14° N 22:51:01 10° NE visible
